STARLINK-4597, 53640

Orbit data source: Space-Track

STARLINK-4597, 53640 is a payload satellite owned by SpaceX/Seattle (US) in LEO that was launched on Sun, 28 Aug 2022 UTC via an FALCON 9 launch vehicle from the Air Force Eastern Test Range (AFETR). Payload-class satellites include a variety of spacecraft equipped with specific instruments for various scientific and technological missions. These include communications satellites like Starlink; space stations such as the ISS; scientific satellites like the Hubble; Earth observation satellites from companies like Planet Labs, Umbra, and HawkEye 360; GPS; miniature CubeSats for education and research; and military/defense satellites.

Loading next visibility...
Identifier
53640, 2022-104BE
Orbit
LEO
Country
Flag of USUS
Related business
Manufacturer
SpaceX/Seattle
Mission
Operational Commercial Communications
Bus & Motor
STARLINK, Unknown motor
Mass
300 kg wet, ~290 kg dry
Launch date (UTC)
2022-08-28 (3 years ago)
Launch vehicle
FALCON 9
Launch site
Air Force Eastern Test Range (AFETR)
Object type
Payload
Rocket body
Debris
Shape & HBR
Box + 1 Pan, 10.1 m
Radar Cross Section
13.562 m², Large (>1 m²)

Expand to show TLE details & history
Last TLE update: 17 hours ago

TLE from 17 hours ago
0 STARLINK-4597
1 53640U 22104BE  25304.75213352  .00001095  00000-0  86905-4 0  9996
2 53640  53.2166  82.6905 0001336  93.1740 266.9405 15.08838752176766
Epoch: 2025-10-31T18:03Z
TLE epoch observation values (Epoch: 2025-10-31T18:03:04.336Z)
Latitude
-0.00001°
Longitude
131.63037°
Altitude
540.694 km
Speed
7.593 km/s
True Right ascension
05h 30m 45s
True Declination
0° 00' 00"
Sunlit
Object was in full shadow at epoch
Visualization orbit readout
Latitude
Unknown
Longitude
Unknown
Altitude
Unknown
Speed
Unknown
Apparent Right ascension
Unknown
Apparent Declination
Unknown
Sunlit
N/A
Visualization observer readout
Local Sidereal Time
07:11:46
Azimuth
Unknown
Elevation
Unknown
Doppler factor
Unknown
Orbital elements
Apogee altitude
540.917 km
Perigee altitude
539.068 km
Semi-major axis
6,918.129 km
Eccentricity
0.00013
Inclination
53.2166°
RAAN
82.6905°
Arg. of periapsis
93.174°
True anomaly
266.92521°
Mean anomaly
266.9405°
Eccentric anomaly
266.93286°
Mean motion
3.7719 °/min
Orbital period
95.44 mins
BSTAR
0.000086905
Loading maneuver chart data...
Computing Atmospheric mass density...
Loading historical data...
Loading historical data...
Loading historical data...
Loading historical data...
Loading historical data...
Loading historical data...
Loading historical data...

Documentation

Showing up to 5 results
|